GW0977 Weather Reports


Display with metric or nautical units.
time (UTC)temp
F
wind
direction
speed
MPH
gust
MPH
rain 1hr
in
rain 24hr
in
rain mn
in
humidity
%
barometer
mb
20260906161605 86 134 5.0 11.0 0.00 0.00 0.00 77 1017.4
20260906154604 85 63 6.0 11.0 0.00 0.00 0.00 79 1017.3
20260906153118 84 85 5.0 10.0 0.00 0.00 0.00 81 1017.2
20260906151606 83 98 5.0 10.0 0.00 0.00 0.00 83 1017.3
20260906150108 81 71 4.0 9.0 0.00 0.00 0.00 86 1017.4
20260906144601 80 64 4.0 9.0 0.00 0.00 0.00 89 1017.5
20260906143103 78 127 5.0 10.0 0.00 0.00 0.00 90 1017.6
20260906141601 78 103 6.0 11.0 0.00 0.00 0.00 92 1017.6
20260906140108 77 143 2.0 14.0 0.00 0.00 0.00 93 1017.5
20260906134601 77 113 6.0 11.0 0.00 0.00 0.00 94 1017.4
20260906133132 76 137 6.0 10.0 0.00 0.00 0.00 94 1017.4
20260906131617 76 103 7.0 11.0 0.00 0.00 0.00 95 1017.3
20260906130118 76 132 3.0 10.0 0.00 0.00 0.00 95 1017.3
20260906124601 76 93 4.0 12.0 0.00 0.00 0.00 95 1017.2
20260906123106 76 46 4.0 9.0 0.00 0.00 0.00 95 1017.0
20260906121620 75 92 4.0 10.0 0.00 0.00 0.00 95 1016.8
20260906120105 75 81 2.0 8.0 0.00 0.00 0.00 95 1016.5
20260906114605 75 69 3.0 10.0 0.00 0.00 0.00 95 1016.3
20260906113106 75 78 3.0 9.0 0.00 0.00 0.00 95 1016.1
20260906111603 75 75 3.0 9.0 0.00 0.00 0.00 94 1016.1
20260906110104 75 107 2.0 9.0 0.00 0.00 0.00 94 1016.0
20260906104600 75 66 2.0 8.0 0.00 0.00 0.00 94 1016.0
20260906103118 76 94 3.0 9.0 0.00 0.00 0.00 93 1015.8
20260906101601 76 78 2.0 6.0 0.00 0.00 0.00 93 1015.8
20260906100112 76 95 2.0 8.0 0.00 0.00 0.00 93 1015.8
20260906094626 76 116 2.0 6.0 0.00 0.00 0.00 92 1015.8
20260906093105 76 53 2.0 7.0 0.00 0.00 0.00 92 1015.6
20260906091604 77 115 1.0 7.0 0.00 0.00 0.00 91 1015.3
20260906090115 77 104 3.0 7.0 0.00 0.00 0.00 91 1015.2
20260906084606 77 113 2.0 6.0 0.00 0.00 0.00 90 1015.1
20260906083102 77 101 2.0 7.0 0.00 0.00 0.00 89 1015.2
20260906081602 77 60 3.0 9.0 0.00 0.00 0.00 89 1015.3
20260906080103 78 71 1.0 6.0 0.00 0.00 0.00 88 1015.3
20260906074605 78 90 3.0 8.0 0.00 0.00 0.00 87 1015.1
20260906073104 78 88 3.0 7.0 0.00 0.00 0.00 87 1015.1
20260906071602 78 109 2.0 7.0 0.00 0.00 0.00 86 1015.2
20260906070100 79 90 2.0 6.0 0.00 0.00 0.00 86 1015.2
20260906064602 79 67 2.0 7.0 0.00 0.00 0.00 85 1015.3
20260906063101 79 109 2.0 7.0 0.00 0.00 0.00 85 1015.4
20260906061607 79 90 3.0 9.0 0.00 0.00 0.00 84 1015.6
20260906060106 79 86 1.0 7.0 0.00 0.00 0.00 83 1015.7
20260906054603 80 36 3.0 9.0 0.00 0.00 0.00 83 1015.8
20260906053100 80 93 2.0 9.0 0.00 0.00 0.00 81 1015.7
20260906051600 81 64 3.0 10.0 0.00 0.00 0.00 80 1015.7
20260906050057 81 74 3.0 8.0 0.00 0.00 0.00 79 1015.6
20260906044603 82 83 4.0 8.0 0.00 0.00 0.00 78 1015.6
20260906043059 82 49 2.0 8.0 0.00 0.00 0.00 76 1015.4
20260906041600 83 45 5.0 10.0 0.00 0.00 0.00 76 1015.3
20260906040107 83 59 2.0 6.0 0.00 0.00 0.00 75 1015.1
20260906034600 83 73 1.0 3.0 0.00 0.00 0.00 75 1015.0
20260906033104 83 73 0.0 4.0 0.00 0.00 0.00 74 1014.7
20260906031604 83 102 1.0 4.0 0.00 0.00 0.00 74 1014.8
20260906024601 84 76 1.0 6.0 0.00 0.00 0.00 72 1014.4
20260906023100 84 84 1.0 4.0 0.00 0.00 0.00 71 1014.2
20260906021615 85 0 0.0 4.0 0.00 0.00 0.00 70 1014.1
20260906020108 85 97 1.0 4.0 0.00 0.00 0.00 69 1013.9
20260906014611 86 101 1.0 3.0 0.00 0.00 0.00 67 1013.8
20260906013107 86 0 1.0 4.0 0.00 0.00 0.00 67 1013.5
20260906011618 87 80 1.0 3.0 0.00 0.00 0.00 66 1013.4
20260906004558 89 81 1.0 4.0 0.00 0.00 0.00 63 1013.3
20260906003103 90 81 0.0 3.0 0.00 0.00 0.00 61 1013.4
20260906001602 91 81 2.0 7.0 0.00 0.00 0.00 60 1013.4
20260906000105 92 53 4.0 8.0 0.00 0.00 0.00 59 1013.4
20260905234606 93 61 2.0 6.0 0.00 0.00 0.00 58 1013.5
20260905233130 93 85 4.0 9.0 0.00 0.00 0.00 57 1013.4
20260905231559 93 62 4.0 10.0 0.00 0.00 0.00 56 1013.5
20260905230104 93 35 4.0 9.0 0.00 0.00 0.00 56 1013.3
20260905224623 93 92 4.0 14.0 0.00 0.00 0.00 57 1013.2
20260905223107 93 30 4.0 11.0 0.00 0.00 0.00 56 1013.3
20260905221604 93 32 6.0 13.0 0.00 0.00 0.00 57 1013.1
20260905220106 93 54 6.0 12.0 0.00 0.00 0.00 57 1013.1
20260905214605 95 37 3.0 12.0 0.00 0.00 0.00 56 1013.2
20260905213105 94 35 6.0 12.0 0.00 0.00 0.00 55 1013.3
20260905211600 95 36 3.0 8.0 0.00 0.00 0.00 54 1013.5
20260905210108 93 319 3.0 8.0 0.00 0.00 0.00 58 1013.6
20260905204606 89 343 3.0 6.0 0.00 0.00 0.00 65 1013.7
20260905203107 88 17 4.0 13.0 0.00 0.00 0.00 65 1014.3
20260905201611 88 16 4.0 13.0 0.00 0.00 0.00 61 1014.5
20260905200104 89 329 8.0 20.0 0.00 0.00 0.00 48 1015.0
20260905194605 100 323 8.0 15.0 0.00 0.00 0.00 45 1014.9
20260905193103 99 147 2.0 11.0 0.00 0.00 0.00 47 1014.7
20260905191611 100 215 2.0 9.0 0.00 0.00 0.00 44 1014.7
20260905190134 100 191 2.0 7.0 0.00 0.00 0.00 44 1014.9
20260905184621 101 211 1.0 4.0 0.00 0.00 0.00 42 1015.1
20260905183103 98 310 4.0 8.0 0.00 0.00 0.00 45 1015.4
20260905181603 98 360 4.0 10.0 0.00 0.00 0.00 48 1015.5
20260905174602 96 123 2.0 10.0 0.00 0.00 0.00 51 1015.6
20260905173104 96 148 3.0 6.0 0.00 0.00 0.00 50 1015.8
20260905171602 95 0 4.0 7.0 0.00 0.00 0.00 50 1015.7
20260905170116 94 218 4.0 10.0 0.00 0.00 0.00 52 1015.9
20260905164604 93 231 3.0 9.0 0.00 0.00 0.00 54 1016.0
20260905163106 94 113 3.0 7.0 0.00 0.00 0.00 53 1016.2